DW2144 Weather Reports


Display with metric or nautical units.
time (UTC)temp
F
wind
direction
speed
MPH
gust
MPH
rain 1hr
in
rain 24hr
in
rain mn
in
humidity
%
barometer
mb
20260510171555 61 338 0.0 1.0 0.00 0.00 0.00 86 1013.9
20260510170034 58 338 0.0 0.0 0.00 0.00 0.00 87 1014.0
20260510164530 57 338 0.0 0.0 0.00 0.00 0.00 87 1014.0
20260510163027 56 338 0.0 0.0 0.00 0.00 0.00 86 1013.8
20260510161523 55 338 0.0 0.0 0.00 0.00 0.00 86 1013.9
20260510160030 55 338 0.0 0.0 0.00 0.00 0.00 86 1013.8
20260510154519 54 338 0.0 0.0 0.00 0.00 0.00 85 1013.7
20260510153029 54 338 0.0 1.0 0.00 0.00 0.00 85 1013.6
20260510151520 53 338 0.0 0.0 0.00 0.00 0.00 85 1013.6
20260510150016 53 338 0.0 0.0 0.00 0.00 0.00 85 1013.5
20260510144514 53 338 0.0 0.0 0.00 0.00 0.00 86 1013.4
20260510143013 53 338 0.0 0.0 0.00 0.00 0.00 85 1013.5
20260510141509 53 338 0.0 0.0 0.00 0.00 0.00 85 1013.3
20260510140008 53 338 0.0 0.0 0.00 0.00 0.00 85 1013.0
20260510134507 53 338 0.0 0.0 0.00 0.00 0.00 85 1012.9
20260510133006 52 338 0.0 0.0 0.00 0.00 0.00 85 1012.7
20260510131506 52 338 0.0 0.0 0.00 0.00 0.00 86 1012.5
20260510130104 52 338 0.0 0.0 0.00 0.00 0.00 85 1012.5
20260510124505 52 338 0.0 0.0 0.00 0.00 0.00 86 1012.5
20260510123003 52 338 0.0 0.0 0.00 0.00 0.00 86 1012.5
20260510121502 52 338 0.0 0.0 0.00 0.00 0.00 86 1012.6
20260510120002 52 338 0.0 0.0 0.00 0.00 0.00 86 1012.6
20260510114622 52 338 0.0 0.0 0.00 0.00 0.00 86 1012.7
20260510113102 52 338 0.0 0.0 0.00 0.00 0.00 86 1012.7
20260510111602 52 338 0.0 0.0 0.00 0.00 0.00 86 1012.6
20260510110104 52 338 0.0 0.0 0.00 0.00 0.00 86 1012.6
20260510104600 52 338 0.0 0.0 0.00 0.00 0.00 86 1012.7
20260510103058 52 338 0.0 0.0 0.00 0.00 0.00 86 1012.7
20260510101607 52 338 0.0 0.0 0.00 0.00 0.00 86 1012.8
20260510100109 51 338 0.0 0.0 0.00 0.00 0.00 86 1012.5
20260510094557 51 338 0.0 0.0 0.00 0.00 0.00 86 1012.6
20260510093056 51 338 0.0 0.0 0.00 0.00 0.00 87 1012.6
20260510091555 50 338 0.0 0.0 0.00 0.00 0.00 87 1012.7
20260510090054 50 338 0.0 0.0 0.00 0.00 0.00 87 1012.7
20260510084609 50 338 0.0 0.0 0.00 0.00 0.00 87 1012.8
20260510083053 50 338 0.0 0.0 0.00 0.00 0.00 86 1012.8
20260510081554 51 338 0.0 0.0 0.00 0.00 0.00 87 1013.0
20260510080059 51 338 0.0 0.0 0.00 0.00 0.00 86 1012.9
20260510074551 52 338 0.0 0.0 0.00 0.00 0.00 86 1012.9
20260510073050 52 338 0.0 0.0 0.00 0.00 0.00 86 1012.9
20260510071546 53 338 0.0 0.0 0.00 0.00 0.00 86 1012.8
20260510070048 53 338 0.0 0.0 0.00 0.00 0.00 86 1012.6
20260510064544 53 338 0.0 0.0 0.00 0.00 0.00 86 1012.6
20260510063039 54 338 0.0 0.0 0.00 0.00 0.00 85 1012.5
20260510061539 54 338 0.0 0.0 0.00 0.00 0.00 85 1012.5
20260510060044 55 338 0.0 0.0 0.00 0.00 0.00 84 1012.5
20260510054537 55 338 0.0 0.0 0.00 0.00 0.00 84 1012.5
20260510053038 56 338 0.0 0.0 0.00 0.00 0.00 84 1012.4
20260510051537 56 338 0.0 0.0 0.00 0.00 0.00 82 1012.4
20260510050037 57 338 0.0 0.0 0.00 0.00 0.00 82 1012.3
20260510044536 58 338 0.0 0.0 0.00 0.00 0.00 81 1012.2
20260510043035 59 338 0.0 0.0 0.00 0.00 0.00 80 1011.9
20260510041534 60 338 0.0 0.0 0.00 0.00 0.00 79 1011.8
20260510040034 61 338 0.0 0.0 0.00 0.00 0.00 77 1011.6
20260510034533 62 338 0.0 0.0 0.00 0.00 0.00 75 1011.4
20260510033043 64 338 0.0 0.0 0.00 0.00 0.00 74 1011.2
20260510031532 65 338 0.0 0.0 0.00 0.00 0.00 72 1010.9
20260510030031 66 338 0.0 0.0 0.00 0.00 0.00 70 1010.8
20260510024532 68 338 0.0 0.0 0.00 0.00 0.00 68 1010.8
20260510023030 69 338 0.0 3.0 0.00 0.00 0.00 66 1010.7
20260510021611 70 338 0.0 1.0 0.00 0.00 0.00 66 1010.7
20260510020031 71 338 0.0 1.0 0.00 0.00 0.00 64 1010.5
20260510014544 72 338 0.0 3.0 0.00 0.00 0.00 62 1010.4
20260510013032 73 338 0.0 2.0 0.00 0.00 0.00 61 1010.5
20260510011528 74 31 0.0 2.0 0.00 0.00 0.00 59 1010.5
20260510010036 74 31 0.0 3.0 0.00 0.00 0.00 58 1010.5
20260510004526 75 31 0.0 3.0 0.00 0.00 0.00 56 1010.5
20260510003026 76 34 0.0 3.0 0.00 0.00 0.00 57 1010.7
20260510001524 76 350 0.0 1.0 0.00 0.00 0.00 56 1010.6
20260510000023 77 350 0.0 5.0 0.00 0.00 0.00 54 1010.8
20260509234523 77 345 0.0 4.0 0.00 0.00 0.00 54 1010.8
20260509233021 77 308 0.0 4.0 0.00 0.00 0.00 54 1010.9
20260509231520 77 312 1.0 5.0 0.00 0.00 0.00 54 1010.8
20260509230025 77 355 0.0 3.0 0.00 0.00 0.00 56 1011.0
20260509224520 78 355 1.0 5.0 0.00 0.00 0.00 55 1011.2
20260509223014 79 9 0.0 3.0 0.00 0.00 0.00 58 1011.4
20260509221513 79 10 0.0 4.0 0.00 0.00 0.00 56 1011.7
20260509220010 80 32 0.0 3.0 0.00 0.00 0.00 55 1011.9
20260509214509 80 36 0.0 4.0 0.00 0.00 0.00 56 1011.9
20260509213009 80 47 0.0 3.0 0.00 0.00 0.00 55 1012.1
20260509211505 80 333 0.0 4.0 0.00 0.00 0.00 55 1012.1
20260509210002 80 125 0.0 4.0 0.00 0.00 0.00 54 1012.2
20260509204502 80 138 0.0 1.0 0.00 0.00 0.00 54 1012.3
20260509203101 79 138 0.0 1.0 0.00 0.00 0.00 55 1012.5
20260509201605 79 138 0.0 1.0 0.00 0.00 0.00 55 1012.7
20260509200056 78 139 0.0 1.0 0.00 0.00 0.00 56 1012.7
20260509194558 77 138 0.0 1.0 0.00 0.00 0.00 60 1012.9
20260509193049 77 139 0.0 0.0 0.00 0.00 0.00 60 1013.0
20260509191554 76 138 0.0 2.0 0.00 0.00 0.00 60 1013.1
20260509190045 75 138 0.0 1.0 0.00 0.00 0.00 61 1013.2
20260509184536 73 138 0.0 1.0 0.00 0.00 0.00 62 1013.3
20260509183035 72 138 0.0 0.0 0.00 0.00 0.00 63 1013.6
20260509181530 71 138 0.0 0.0 0.00 0.00 0.00 65 1013.8
20260509180026 70 322 0.0 0.0 0.00 0.00 0.00 66 1013.9
20260509174523 69 322 0.0 0.0 0.00 0.00 0.00 71 1013.9
20260509173029 68 322 0.0 1.0 0.00 0.00 0.00 77 1013.9